星链-31721 (STARLINK-31721 )

导读

STARLINK-31721是美国太空探索技术公司星链互联网星座的卫星,由美国于2024年4月18日发射,属于星链组网扩容任务的一员。星链旨在为全球提供低延迟、高速率卫星互联网服务,该卫星入轨后将提升星座覆盖密度与服务稳定性,服务偏远地区通信、航空海事互联等场景。

Basic Information
目录编号:
59536
目录名称:
STARLINK-31721
国际标识:
2024-074C
轨道中心:
EARTH
卫星名称:
星链-31721
卫星全名:
星链-31721 (STARLINK-31721 )
卫星状态:
在轨 (已飞行877 天)
发射日期:
2024-04-18 UTC
国别 :
美国 (US)
星等 :
--
This satellite is enrolled in the Space Conjunction Data Service (SCDS) and the current flight risk assessment level is: No High Risk
Orbit Information
数据来源 国际轨道数据
星历时间: 2026-09-11T22:59:17+0800
11小时前
查看轨道信息
半长轴: 6861.181km
偏心率: 0.0001099
轨道倾角: 43.002°
近地点辐角 265.757°
升交点赤经 13.205°
平近点角 94.316°
近地点: 482.289km
远地点: 483.799km
周期: 94.267分钟
每日圈数: 15.27582
Detailed Information
固有亮度:
5
最大亮度:
1.5
卫星平台:
Starlink v2.0 mini
覆盖范围:
全球
运营商:
太空探索技术公司
运营商所在国:
美国
制造商(研发单位):
太空探索技术公司
制造商所在国:
美国
使用方式:
暂无
Satellite Introduction
星链(Starlink)计划是由太空探索技术公司(SpaceX)提出的一个巨型低轨卫星互联网星座项目,计划在2019年至2024年间在太空搭建由约1.2万颗卫星组成的“星链”网络,其中1584颗将部署在地球上空550千米处的近地轨道,并从2020年开始工作。该卫星仍在工作。
2D Orbit Map
3D Orbit Map
Orbit Altitude Analysis Chart
Orbit Inclination Analysis Chart
Orbit Comprehensive Analysis Chart
View Comprehensive Chart
Conjunction Data List
Event ID Objects TCA Miss Dist (km) Collision Risk Probability Collision Risk Index (CRI) Action
CDM_260912-181205-953606-008523
2026-09-12T
18:12:12+0000
2.464 km
极远距离
1.345606E-6 低风险 0.38
CDM_260909-204805-953606-308721
2026-09-09T
20:48:24+0000
2.801 km
极远距离
1.284582E-6 低风险 0.37
CDM_260912-145805-363905-953621
2026-09-12T
14:58:31+0000
2.814 km
极远距离
8.927611E-7 极低风险 0.34
Miss Distance Evolution Trend with All Objects
Collision Probability Evolution Trend with All Objects